Simultaneous Nadir Overpasses (SNOs) Predictions

Prediction of SNOs between LANDSAT-8 and NOAA-19 Satellite Orbit:

Table of predicted SNOs for the next 14.0 days since TLE Epoch: 2/16/2019
Index Date (LANDSAT-8) Time (LANDSAT-8) Lat,Lon (LANDSAT-8) SZA (LANDSAT-8 ) Date (NOAA-19) Time (NOAA-19) Lat,Lon (NOAA-19) SZA (NOAA-19 ) Distance(km) Time Diff (sec)
1 02/18/2019 02:17:15 -78.48, -16.58 89.47 02/18/2019 02:16:33 -78.49, -16.58 89.47 0.42 42
2 02/18/2019 03:06:42 78.44, 150.82 90.47 02/18/2019 03:07:28 78.47, 150.81 90.51 3.61 46
3 02/20/2019 07:50:58 78.48, 79.96 89.74 02/20/2019 07:49:57 78.50, 80.06 89.76 3.37 61
4 02/20/2019 08:40:25 -78.49,-112.36 90.27 02/20/2019 08:41:01 -78.45,-112.37 90.29 4.16 36
5 02/22/2019 13:24:41 -78.53, 176.78 91.01 02/22/2019 13:23:31 -78.52, 176.63 91.03 3.50 70
6 02/22/2019 14:14:08 78.48, -15.84 88.93 02/22/2019 14:14:25 78.47, -15.75 88.92 2.27 17
7 02/24/2019 19:47:52 -78.48, 80.76 91.89 02/24/2019 19:47:59 -78.49, 80.80 91.88 1.06 7
8 02/27/2019 01:21:34 78.51, 177.46 87.32 02/27/2019 01:21:23 78.50, 177.44 87.31 0.69 11
9 03/01/2019 06:55:18 -78.51, -85.96 93.52 03/01/2019 06:54:56 -78.50, -85.86 93.52 2.33 22




NCC Satellite Simultaneous Nadir Overpasses (SNOs) Prediction Service
